| time (UTC) | temp F | wind direction | speed MPH | gust MPH | rain 1hr in | rain 24hr in | rain mn in | humidity % | barometer mb |
| 20260905014606 | 67 | 0.0 | 0.0 | 0.00 | 0.61 | 0.61 | 91 | 1010.0 | |
| 20260905014056 | 68 | 0.0 | 0.0 | 0.00 | 0.61 | 0.61 | 91 | 1009.9 | |
| 20260905013555 | 68 | 0.0 | 0.0 | 0.00 | 0.61 | 0.61 | 91 | 1009.8 | |
| 20260905013104 | 68 | 0.0 | 0.0 | 0.00 | 0.61 | 0.61 | 90 | 1010.0 | |
| 20260905012602 | 68 | 0.0 | 0.0 | 0.00 | 0.61 | 0.61 | 90 | 1010.0 | |
| 20260905012103 | 68 | 0.0 | 0.0 | 0.00 | 0.61 | 0.61 | 90 | 1009.9 | |
| 20260905011608 | 68 | 0.0 | 0.0 | 0.00 | 0.61 | 0.61 | 90 | 1010.0 | |
| 20260905011055 | 69 | 0.0 | 0.0 | 0.00 | 0.61 | 0.61 | 90 | 1010.0 | |
| 20260905010559 | 69 | 0.0 | 0.0 | 0.00 | 0.61 | 0.61 | 89 | 1009.9 | |
| 20260905005555 | 69 | 0.0 | 0.0 | 0.00 | 0.61 | 0.61 | 89 | 1010.2 | |
| 20260905005059 | 69 | 0.0 | 0.0 | 0.00 | 0.61 | 0.61 | 89 | 1010.0 | |
| 20260905004609 | 69 | 0.0 | 0.0 | 0.00 | 0.61 | 0.61 | 89 | 1010.0 | |
| 20260905004056 | 69 | 0.0 | 0.0 | 0.00 | 0.61 | 0.61 | 89 | 1009.9 | |
| 20260905003556 | 69 | 0.0 | 0.0 | 0.00 | 0.61 | 0.61 | 89 | 1010.1 | |
| 20260905003110 | 69 | 0.0 | 0.0 | 0.00 | 0.61 | 0.61 | 89 | 1010.0 | |
| 20260905002555 | 69 | 0.0 | 0.0 | 0.00 | 0.61 | 0.61 | 88 | 1010.0 | |
| 20260905002055 | 70 | 0.0 | 0.0 | 0.00 | 0.61 | 0.61 | 88 | 1009.9 | |
| 20260905001612 | 70 | 0.0 | 0.0 | 0.00 | 0.61 | 0.61 | 88 | 1009.9 | |
| 20260905001058 | 70 | 0.0 | 0.0 | 0.00 | 0.61 | 0.61 | 88 | 1009.9 | |
| 20260905000558 | 71 | 0.0 | 0.0 | 0.00 | 0.61 | 0.61 | 87 | 1009.9 | |
| 20260905000109 | 71 | 0.0 | 0.0 | 0.00 | 0.61 | 0.61 | 87 | 1009.9 | |
| 20260904235556 | 71 | 0.0 | 0.0 | 0.00 | 0.61 | 0.61 | 85 | 1009.8 | |
| 20260904235057 | 71 | 0.0 | 0.0 | 0.00 | 0.61 | 0.61 | 85 | 1009.7 | |
| 20260904234615 | 71 | 0.0 | 0.0 | 0.00 | 0.61 | 0.61 | 85 | 1009.6 | |
| 20260904234055 | 71 | 0.0 | 0.0 | 0.00 | 0.61 | 0.61 | 85 | 1009.6 | |
| 20260904233556 | 71 | 0.0 | 0.0 | 0.00 | 0.61 | 0.61 | 84 | 1009.8 | |
| 20260904233104 | 71 | 0.0 | 0.0 | 0.00 | 0.61 | 0.61 | 84 | 1009.7 | |
| 20260904232555 | 72 | 0.0 | 0.0 | 0.00 | 0.61 | 0.61 | 84 | 1009.8 | |
| 20260904232054 | 72 | 0.0 | 0.0 | 0.00 | 0.61 | 0.61 | 84 | 1009.7 | |
| 20260904231612 | 72 | 0.0 | 0.0 | 0.00 | 0.61 | 0.61 | 83 | 1009.7 | |
| 20260904231059 | 72 | 0.0 | 0.0 | 0.00 | 0.61 | 0.61 | 82 | 1009.7 | |
| 20260904230602 | 73 | 0.0 | 0.0 | 0.00 | 0.61 | 0.61 | 82 | 1009.7 | |
| 20260904230129 | 73 | 0 | 0.0 | 4.0 | 0.00 | 0.61 | 0.61 | 82 | 1009.6 |
| 20260904225559 | 73 | 0 | 0.0 | 4.0 | 0.00 | 0.61 | 0.61 | 82 | 1009.7 |
| 20260904225058 | 73 | 0 | 0.0 | 0.0 | 0.00 | 0.61 | 0.61 | 81 | 1009.6 |
| 20260904224609 | 74 | 0 | 0.0 | 0.0 | 0.00 | 0.61 | 0.61 | 81 | 1009.7 |
| 20260904224058 | 74 | 0 | 0.0 | 1.0 | 0.00 | 0.61 | 0.61 | 80 | 1009.7 |
| 20260904223554 | 74 | 0 | 0.0 | 1.0 | 0.00 | 0.61 | 0.61 | 79 | 1009.8 |
| 20260904223107 | 74 | 0 | 0.0 | 3.0 | 0.00 | 0.61 | 0.61 | 78 | 1009.8 |
| 20260904222554 | 75 | 0 | 0.0 | 3.0 | 0.00 | 0.61 | 0.61 | 77 | 1009.8 |
| 20260904222057 | 75 | 19 | 0.0 | 2.0 | 0.00 | 0.61 | 0.61 | 76 | 1009.6 |
| 20260904221623 | 75 | 19 | 0.0 | 3.0 | 0.00 | 0.61 | 0.61 | 75 | 1009.7 |
| 20260904221054 | 76 | 19 | 0.0 | 3.0 | 0.00 | 0.61 | 0.61 | 74 | 1009.7 |
| 20260904220558 | 77 | 0 | 0.0 | 5.0 | 0.00 | 0.61 | 0.61 | 73 | 1009.7 |
| 20260904220112 | 77 | 19 | 1.0 | 6.0 | 0.00 | 0.61 | 0.61 | 71 | 1009.5 |
| 20260904215600 | 78 | 20 | 2.0 | 8.0 | 0.00 | 0.61 | 0.61 | 69 | 1009.7 |
| 20260904215057 | 78 | 348 | 1.0 | 8.0 | 0.00 | 0.61 | 0.61 | 68 | 1009.6 |
| 20260904214606 | 79 | 0 | 3.0 | 8.0 | 0.00 | 0.61 | 0.61 | 67 | 1009.7 |
| 20260904214055 | 79 | 360 | 3.0 | 6.0 | 0.00 | 0.61 | 0.61 | 67 | 1009.6 |
| 20260904213558 | 79 | 40 | 2.0 | 6.0 | 0.00 | 0.61 | 0.61 | 68 | 1009.6 |
| 20260904213116 | 79 | 328 | 1.0 | 5.0 | 0.00 | 0.61 | 0.61 | 67 | 1009.7 |
| 20260904212555 | 79 | 17 | 1.0 | 5.0 | 0.00 | 0.61 | 0.61 | 68 | 1009.6 |
| 20260904212054 | 79 | 18 | 2.0 | 5.0 | 0.00 | 0.61 | 0.61 | 66 | 1009.7 |
| 20260904211613 | 79 | 19 | 2.0 | 6.0 | 0.00 | 0.61 | 0.61 | 67 | 1009.7 |
| 20260904211057 | 79 | 0 | 1.0 | 6.0 | 0.00 | 0.61 | 0.61 | 69 | 1009.6 |
| 20260904210558 | 79 | 340 | 1.0 | 5.0 | 0.00 | 0.61 | 0.61 | 66 | 1009.6 |
| 20260904210116 | 79 | 346 | 2.0 | 5.0 | 0.00 | 0.61 | 0.61 | 66 | 1009.7 |
| 20260904205559 | 79 | 21 | 2.0 | 5.0 | 0.00 | 0.61 | 0.61 | 67 | 1009.8 |
| 20260904205056 | 79 | 350 | 1.0 | 6.0 | 0.00 | 0.61 | 0.61 | 69 | 1009.7 |
| 20260904204601 | 79 | 26 | 1.0 | 6.0 | 0.00 | 0.61 | 0.61 | 66 | 1009.8 |
| 20260904204058 | 79 | 0 | 2.0 | 7.0 | 0.00 | 0.61 | 0.61 | 66 | 1009.8 |
| 20260904203557 | 79 | 306 | 2.0 | 8.0 | 0.00 | 0.61 | 0.61 | 65 | 1009.9 |
| 20260904203107 | 80 | 0 | 2.0 | 11.0 | 0.00 | 0.61 | 0.61 | 63 | 1009.7 |
| 20260904202556 | 81 | 298 | 2.0 | 12.0 | 0.00 | 0.61 | 0.61 | 63 | 1009.8 |
| 20260904202054 | 81 | 303 | 3.0 | 12.0 | 0.00 | 0.61 | 0.61 | 64 | 1009.8 |
| 20260904201609 | 81 | 313 | 4.0 | 11.0 | 0.00 | 0.61 | 0.61 | 64 | 1009.8 |
| 20260904201055 | 82 | 24 | 2.0 | 9.0 | 0.00 | 0.61 | 0.61 | 64 | 1009.8 |
| 20260904200557 | 82 | 30 | 3.0 | 9.0 | 0.00 | 0.61 | 0.61 | 64 | 1009.8 |
| 20260904200127 | 82 | 18 | 2.0 | 9.0 | 0.00 | 0.61 | 0.61 | 63 | 1009.8 |
| 20260904195555 | 82 | 30 | 3.0 | 9.0 | 0.00 | 0.61 | 0.61 | 63 | 1009.9 |
| 20260904195059 | 82 | 340 | 3.0 | 9.0 | 0.00 | 0.61 | 0.61 | 66 | 1009.7 |
| 20260904194636 | 81 | 286 | 3.0 | 9.0 | 0.00 | 0.61 | 0.61 | 65 | 1009.8 |
| 20260904194058 | 82 | 360 | 2.0 | 8.0 | 0.00 | 0.61 | 0.61 | 67 | 1009.9 |
| 20260904193558 | 81 | 339 | 2.0 | 8.0 | 0.00 | 0.61 | 0.61 | 64 | 1009.9 |
| 20260904193107 | 82 | 301 | 2.0 | 8.0 | 0.00 | 0.61 | 0.61 | 66 | 1009.9 |
| 20260904192558 | 82 | 331 | 2.0 | 8.0 | 0.00 | 0.61 | 0.61 | 67 | 1010.0 |
| 20260904192057 | 82 | 0 | 3.0 | 8.0 | 0.00 | 0.61 | 0.61 | 66 | 1010.0 |
| 20260904191624 | 81 | 28 | 0.0 | 13.0 | 0.00 | 0.61 | 0.61 | 65 | 1010.1 |
| 20260904191058 | 80 | 290 | 2.0 | 13.0 | 0.00 | 0.61 | 0.61 | 63 | 1010.1 |
| 20260904190558 | 81 | 350 | 2.0 | 11.0 | 0.00 | 0.61 | 0.61 | 64 | 1010.2 |
| 20260904185558 | 81 | 306 | 4.0 | 11.0 | 0.00 | 0.61 | 0.61 | 66 | 1010.1 |
| 20260904185058 | 81 | 289 | 3.0 | 9.0 | 0.00 | 0.61 | 0.61 | 69 | 1010.1 |
| 20260904184611 | 80 | 24 | 3.0 | 9.0 | 0.00 | 0.61 | 0.61 | 63 | 1010.3 |
| 20260904184100 | 81 | 23 | 2.0 | 9.0 | 0.00 | 0.61 | 0.61 | 64 | 1010.2 |
| 20260904183558 | 82 | 302 | 2.0 | 11.0 | 0.00 | 0.61 | 0.61 | 67 | 1010.2 |
| 20260904183111 | 82 | 284 | 5.0 | 13.0 | 0.00 | 0.61 | 0.61 | 64 | 1010.2 |
| 20260904182556 | 82 | 80 | 4.0 | 13.0 | 0.00 | 0.61 | 0.61 | 69 | 1010.2 |
| 20260904182058 | 81 | 15 | 1.0 | 9.0 | 0.00 | 0.61 | 0.61 | 72 | 1010.1 |
| 20260904181603 | 80 | 331 | 3.0 | 9.0 | 0.00 | 0.61 | 0.61 | 66 | 1010.1 |
| 20260904181056 | 79 | 0 | 2.0 | 11.0 | 0.00 | 0.61 | 0.61 | 68 | 1010.0 |
| 20260904180556 | 79 | 290 | 4.0 | 11.0 | 0.00 | 0.61 | 0.61 | 65 | 1010.1 |
| 20260904180108 | 80 | 350 | 2.0 | 11.0 | 0.00 | 0.61 | 0.61 | 67 | 1010.2 |
| 20260904175557 | 81 | 57 | 4.0 | 11.0 | 0.00 | 0.61 | 0.61 | 69 | 1010.2 |
| 20260904175056 | 81 | 325 | 1.0 | 9.0 | 0.00 | 0.61 | 0.61 | 66 | 1010.1 |
| 20260904174606 | 82 | 300 | 2.0 | 9.0 | 0.00 | 0.61 | 0.61 | 70 | 1010.1 |
| 20260904174054 | 81 | 296 | 2.0 | 11.0 | 0.00 | 0.61 | 0.61 | 68 | 1010.1 |
| 20260904173554 | 81 | 32 | 3.0 | 11.0 | 0.00 | 0.61 | 0.61 | 64 | 1010.1 |
| 20260904173117 | 81 | 38 | 4.0 | 12.0 | 0.00 | 0.61 | 0.61 | 64 | 1010.0 |
| 20260904172554 | 81 | 28 | 2.0 | 12.0 | 0.00 | 0.61 | 0.61 | 69 | 1010.0 |
| 20260904172054 | 81 | 344 | 3.0 | 12.0 | 0.00 | 0.61 | 0.61 | 66 | 1010.0 |
| 20260904171601 | 81 | 290 | 3.0 | 16.0 | 0.00 | 0.61 | 0.61 | 69 | 1010.1 |
| 20260904171055 | 81 | 298 | 4.0 | 16.0 | 0.00 | 0.61 | 0.61 | 70 | 1010.1 |
| 20260904170558 | 81 | 18 | 4.0 | 10.0 | 0.00 | 0.61 | 0.61 | 66 | 1010.1 |
| 20260904170107 | 81 | 360 | 5.0 | 11.0 | 0.00 | 0.61 | 0.61 | 66 | 1010.2 |
| 20260904165556 | 81 | 273 | 4.0 | 11.0 | 0.00 | 0.61 | 0.61 | 68 | 1010.2 |
| 20260904165056 | 81 | 274 | 5.0 | 11.0 | 0.00 | 0.61 | 0.61 | 68 | 1010.2 |
| 20260904164621 | 81 | 360 | 3.0 | 10.0 | 0.00 | 0.61 | 0.61 | 66 | 1010.3 |
| 20260904164059 | 81 | 281 | 4.0 | 10.0 | 0.00 | 0.61 | 0.61 | 70 | 1010.3 |
| 20260904163556 | 80 | 310 | 5.0 | 10.0 | 0.00 | 0.61 | 0.61 | 69 | 1010.2 |
| 20260904163100 | 81 | 305 | 4.0 | 10.0 | 0.00 | 0.61 | 0.61 | 68 | 1010.2 |
| 20260904162556 | 81 | 344 | 4.0 | 19.0 | 0.00 | 0.61 | 0.61 | 67 | 1010.4 |
| 20260904162055 | 80 | 306 | 3.0 | 19.0 | 0.00 | 0.61 | 0.61 | 70 | 1010.3 |
| 20260904161600 | 80 | 314 | 7.0 | 16.0 | 0.00 | 0.61 | 0.61 | 69 | 1010.5 |
| 20260904161056 | 80 | 38 | 5.0 | 16.0 | 0.00 | 0.61 | 0.61 | 68 | 1010.5 |
| 20260904160556 | 80 | 272 | 4.0 | 15.0 | 0.00 | 0.61 | 0.61 | 72 | 1010.5 |
| 20260904160107 | 80 | 277 | 4.0 | 12.0 | 0.00 | 0.61 | 0.61 | 73 | 1010.6 |
| 20260904155555 | 80 | 290 | 3.0 | 11.0 | 0.00 | 0.61 | 0.61 | 76 | 1010.5 |
| 20260904155056 | 80 | 18 | 3.0 | 11.0 | 0.00 | 0.61 | 0.61 | 77 | 1010.5 |
| 20260904154620 | 79 | 326 | 3.0 | 14.0 | 0.00 | 0.61 | 0.61 | 74 | 1010.7 |
| 20260904154056 | 79 | 27 | 4.0 | 14.0 | 0.00 | 0.61 | 0.61 | 74 | 1010.7 |
| 20260904153555 | 79 | 36 | 5.0 | 14.0 | 0.00 | 0.61 | 0.61 | 74 | 1010.8 |
| 20260904153104 | 80 | 49 | 4.0 | 14.0 | 0.00 | 0.61 | 0.61 | 74 | 1010.9 |
| 20260904152555 | 80 | 276 | 5.0 | 12.0 | 0.00 | 0.61 | 0.61 | 77 | 1010.9 |
| 20260904152059 | 80 | 282 | 2.0 | 9.0 | 0.00 | 0.61 | 0.61 | 75 | 1010.9 |
| 20260904151611 | 80 | 275 | 3.0 | 11.0 | 0.00 | 0.61 | 0.61 | 80 | 1010.9 |
| 20260904151056 | 79 | 313 | 4.0 | 14.0 | 0.00 | 0.61 | 0.61 | 79 | 1010.8 |
| 20260904150556 | 79 | 5 | 4.0 | 16.0 | 0.00 | 0.61 | 0.61 | 80 | 1010.8 |
| 20260904150108 | 79 | 288 | 6.0 | 16.0 | 0.00 | 0.61 | 0.61 | 77 | 1010.7 |
| 20260904145556 | 79 | 330 | 4.0 | 15.0 | 0.00 | 0.61 | 0.61 | 79 | 1010.8 |
| 20260904145056 | 78 | 47 | 6.0 | 15.0 | 0.00 | 0.61 | 0.61 | 81 | 1010.7 |
| 20260904144604 | 78 | 5 | 6.0 | 15.0 | 0.00 | 0.61 | 0.61 | 82 | 1010.7 |
| 20260904144056 | 78 | 311 | 3.0 | 9.0 | 0.00 | 0.61 | 0.61 | 86 | 1010.6 |
| 20260904143558 | 78 | 347 | 4.0 | 12.0 | 0.00 | 0.61 | 0.61 | 83 | 1010.8 |
| 20260904143102 | 79 | 329 | 3.0 | 12.0 | 0.00 | 0.61 | 0.61 | 84 | 1010.8 |
| 20260904142556 | 78 | 282 | 4.0 | 10.0 | 0.00 | 0.61 | 0.61 | 83 | 1010.7 |
| 20260904142055 | 79 | 281 | 2.0 | 10.0 | 0.00 | 0.61 | 0.61 | 85 | 1010.9 |
| 20260904141623 | 78 | 256 | 3.0 | 11.0 | 0.00 | 0.61 | 0.61 | 85 | 1010.8 |
| 20260904141056 | 78 | 15 | 3.0 | 11.0 | 0.00 | 0.61 | 0.61 | 85 | 1010.7 |
| 20260904140556 | 79 | 295 | 2.0 | 10.0 | 0.00 | 0.61 | 0.61 | 87 | 1010.6 |
| 20260904140110 | 78 | 335 | 3.0 | 10.0 | 0.00 | 0.61 | 0.61 | 86 | 1010.6 |
| 20260904135556 | 78 | 34 | 1.0 | 7.0 | 0.00 | 0.62 | 0.61 | 88 | 1010.7 |
| 20260904135057 | 78 | 284 | 0.0 | 6.0 | 0.00 | 0.62 | 0.61 | 90 | 1010.8 |
| 20260904134621 | 78 | 0 | 1.0 | 6.0 | 0.00 | 0.62 | 0.61 | 90 | 1010.6 |
| 20260904134053 | 77 | 13 | 2.0 | 5.0 | 0.00 | 0.62 | 0.61 | 90 | 1010.6 |
| 20260904133554 | 77 | 333 | 1.0 | 4.0 | 0.00 | 0.62 | 0.61 | 91 | 1010.6 |
| 20260904133117 | 77 | 337 | 1.0 | 4.0 | 0.00 | 0.62 | 0.61 | 93 | 1010.7 |
| 20260904132558 | 76 | 338 | 1.0 | 5.0 | 0.00 | 0.62 | 0.61 | 93 | 1010.6 |
| 20260904132058 | 76 | 348 | 2.0 | 5.0 | 0.00 | 0.62 | 0.61 | 93 | 1010.8 |
| 20260904131615 | 76 | 302 | 1.0 | 5.0 | 0.00 | 0.62 | 0.61 | 94 | 1010.8 |
| 20260904131054 | 75 | 302 | 1.0 | 5.0 | 0.00 | 0.62 | 0.61 | 95 | 1010.7 |
| 20260904130554 | 75 | 304 | 0.0 | 4.0 | 0.00 | 0.62 | 0.61 | 96 | 1010.8 |
| 20260904130059 | 75 | 308 | 1.0 | 4.0 | 0.00 | 0.62 | 0.61 | 95 | 1010.7 |
| 20260904125557 | 74 | 0 | 1.0 | 4.0 | 0.00 | 0.62 | 0.61 | 96 | 1010.6 |
| 20260904125054 | 74 | 0 | 0.0 | 5.0 | 0.00 | 0.62 | 0.61 | 96 | 1010.8 |
| 20260904124605 | 73 | 304 | 0.0 | 5.0 | 0.00 | 0.62 | 0.61 | 96 | 1010.7 |
| 20260904124057 | 72 | 306 | 0.0 | 5.0 | 0.00 | 0.62 | 0.61 | 96 | 1010.7 |
| 20260904123557 | 71 | 308 | 1.0 | 6.0 | 0.00 | 0.62 | 0.61 | 95 | 1010.6 |
| 20260904123126 | 71 | 310 | 2.0 | 6.0 | 0.00 | 0.62 | 0.61 | 95 | 1010.6 |
| 20260904122554 | 71 | 323 | 2.0 | 6.0 | 0.00 | 0.62 | 0.61 | 95 | 1010.7 |
| 20260904122059 | 71 | 300 | 2.0 | 5.0 | 0.00 | 0.62 | 0.61 | 95 | 1010.7 |
| 20260904121604 | 71 | 326 | 1.0 | 4.0 | 0.00 | 0.62 | 0.61 | 95 | 1010.5 |
| 20260904121057 | 71 | 324 | 1.0 | 5.0 | 0.00 | 0.62 | 0.61 | 95 | 1010.7 |
| 20260904120555 | 71 | 0 | 2.0 | 5.0 | 0.00 | 0.62 | 0.61 | 95 | 1010.8 |
| 20260904120059 | 71 | 296 | 1.0 | 5.0 | 0.00 | 0.62 | 0.61 | 95 | 1010.7 |
| 20260904115554 | 70 | 296 | 1.0 | 5.0 | 0.00 | 0.62 | 0.61 | 95 | 1010.7 |
| 20260904115100 | 70 | 296 | 1.0 | 5.0 | 0.00 | 0.62 | 0.61 | 95 | 1010.6 |
| 20260904114605 | 70 | 298 | 1.0 | 5.0 | 0.00 | 0.62 | 0.61 | 95 | 1010.6 |
| 20260904114058 | 70 | 0 | 1.0 | 5.0 | 0.00 | 0.62 | 0.61 | 95 | 1010.6 |
| 20260904113558 | 70 | 298 | 2.0 | 5.0 | 0.00 | 0.62 | 0.61 | 95 | 1010.5 |
| 20260904113105 | 70 | 301 | 1.0 | 4.0 | 0.00 | 0.62 | 0.61 | 94 | 1010.5 |
| 20260904112557 | 70 | 311 | 1.0 | 4.0 | 0.00 | 0.62 | 0.61 | 94 | 1010.4 |
| 20260904112054 | 70 | 325 | 1.0 | 4.0 | 0.00 | 0.62 | 0.61 | 94 | 1010.3 |
| 20260904111607 | 70 | 317 | 1.0 | 4.0 | 0.00 | 0.62 | 0.61 | 94 | 1010.4 |
| 20260904111056 | 69 | 317 | 1.0 | 4.0 | 0.00 | 0.62 | 0.61 | 95 | 1010.3 |
| 20260904110556 | 69 | 317 | 1.0 | 3.0 | 0.00 | 0.62 | 0.61 | 94 | 1010.2 |
| 20260904105556 | 69 | 0.0 | 0.0 | 0.00 | 0.62 | 0.61 | 94 | 1009.9 | |
| 20260904105056 | 69 | 0.0 | 0.0 | 0.00 | 0.62 | 0.61 | 94 | 1010.0 | |
| 20260904104608 | 69 | 0.0 | 0.0 | 0.00 | 0.62 | 0.61 | 94 | 1009.8 | |
| 20260904104055 | 69 | 0.0 | 0.0 | 0.00 | 0.62 | 0.61 | 94 | 1009.8 | |
| 20260904103555 | 69 | 0.0 | 0.0 | 0.00 | 0.62 | 0.61 | 94 | 1009.7 | |
| 20260904103106 | 69 | 0.0 | 0.0 | 0.00 | 0.62 | 0.61 | 94 | 1009.7 | |
| 20260904102554 | 69 | 0.0 | 0.0 | 0.00 | 0.62 | 0.61 | 94 | 1009.8 | |
| 20260904102058 | 69 | 0.0 | 0.0 | 0.00 | 0.62 | 0.61 | 94 | 1009.6 | |
| 20260904101603 | 69 | 0.0 | 0.0 | 0.00 | 0.62 | 0.61 | 94 | 1009.7 | |
| 20260904101055 | 69 | 0.0 | 0.0 | 0.00 | 0.62 | 0.61 | 94 | 1009.8 | |
| 20260904100557 | 69 | 0.0 | 0.0 | 0.00 | 0.62 | 0.61 | 94 | 1009.7 | |
| 20260904100111 | 69 | 0.0 | 0.0 | 0.00 | 0.62 | 0.61 | 94 | 1009.6 | |
| 20260904095556 | 69 | 0.0 | 0.0 | 0.01 | 0.62 | 0.61 | 94 | 1009.6 | |
| 20260904095057 | 69 | 0.0 | 0.0 | 0.01 | 0.62 | 0.61 | 94 | 1009.4 | |
| 20260904094608 | 69 | 0.0 | 0.0 | 0.01 | 0.62 | 0.61 | 94 | 1009.5 | |
| 20260904094053 | 69 | 0.0 | 0.0 | 0.01 | 0.62 | 0.61 | 94 | 1009.5 | |
| 20260904093558 | 69 | 0.0 | 0.0 | 0.01 | 0.62 | 0.61 | 94 | 1009.4 | |
| 20260904093107 | 69 | 0.0 | 0.0 | 0.01 | 0.62 | 0.61 | 94 | 1009.5 | |
| 20260904092554 | 69 | 0.0 | 0.0 | 0.01 | 0.62 | 0.61 | 93 | 1009.5 | |
| 20260904092054 | 69 | 0.0 | 0.0 | 0.01 | 0.62 | 0.61 | 93 | 1009.6 | |
| 20260904091600 | 70 | 0.0 | 0.0 | 0.02 | 0.62 | 0.61 | 93 | 1009.5 | |
| 20260904091054 | 70 | 0.0 | 0.0 | 0.03 | 0.62 | 0.61 | 93 | 1009.6 | |
| 20260904090553 | 70 | 0.0 | 0.0 | 0.13 | 0.62 | 0.61 | 93 | 1009.4 | |
| 20260904090106 | 70 | 0.0 | 0.0 | 0.29 | 0.61 | 0.60 | 93 | 1009.3 | |
| 20260904085556 | 70 | 0.0 | 0.0 | 0.39 | 0.61 | 0.60 | 93 | 1009.3 | |
| 20260904085058 | 70 | 0.0 | 0.0 | 0.40 | 0.61 | 0.60 | 93 | 1009.2 | |
| 20260904084606 | 70 | 0.0 | 0.0 | 0.40 | 0.61 | 0.60 | 93 | 1009.0 | |
| 20260904084056 | 70 | 0.0 | 0.0 | 0.40 | 0.61 | 0.60 | 93 | 1008.8 | |
| 20260904083557 | 70 | 0.0 | 0.0 | 0.40 | 0.61 | 0.60 | 93 | 1009.0 | |
| 20260904083101 | 70 | 0.0 | 0.0 | 0.40 | 0.61 | 0.60 | 93 | 1009.0 | |
| 20260904082558 | 70 | 0.0 | 0.0 | 0.40 | 0.61 | 0.60 | 93 | 1009.3 | |
| 20260904082056 | 71 | 0.0 | 0.0 | 0.40 | 0.61 | 0.60 | 93 | 1009.4 | |
| 20260904081608 | 71 | 0.0 | 0.0 | 0.39 | 0.60 | 0.58 | 93 | 1009.4 | |
| 20260904081053 | 71 | 0.0 | 0.0 | 0.38 | 0.58 | 0.58 | 93 | 1009.7 | |
| 20260904080555 | 72 | 0.0 | 0.0 | 0.28 | 0.49 | 0.48 | 93 | 1009.7 | |
| 20260904080112 | 72 | 0.0 | 0.0 | 0.10 | 0.31 | 0.30 | 94 | 1010.4 | |
| 20260904075558 | 72 | 0.0 | 0.0 | 0.01 | 0.23 | 0.21 | 94 | 1010.2 | |
| 20260904075100 | 72 | 0.0 | 0.0 | 0.00 | 0.22 | 0.20 | 94 | 1009.5 | |
| 20260904074603 | 72 | 0.0 | 0.0 | 0.01 | 0.22 | 0.20 | 93 | 1009.3 | |
| 20260904074057 | 72 | 0.0 | 0.0 | 0.01 | 0.22 | 0.20 | 93 | 1009.2 | |
| 20260904073557 | 72 | 0.0 | 0.0 | 0.02 | 0.22 | 0.20 | 93 | 1009.2 | |
| 20260904073104 | 72 | 0.0 | 0.0 | 0.05 | 0.22 | 0.20 | 93 | 1009.4 | |
| 20260904072553 | 72 | 0.0 | 0.0 | 0.13 | 0.22 | 0.20 | 93 | 1009.5 | |
| 20260904072053 | 72 | 0.0 | 0.0 | 0.19 | 0.22 | 0.20 | 93 | 1009.4 | |
| 20260904071606 | 72 | 0.0 | 0.0 | 0.20 | 0.22 | 0.20 | 93 | 1009.4 | |
| 20260904071055 | 72 | 0.0 | 0.0 | 0.20 | 0.22 | 0.20 | 93 | 1009.5 | |
| 20260904070557 | 72 | 0.0 | 0.0 | 0.20 | 0.22 | 0.20 | 93 | 1009.8 | |
| 20260904070105 | 72 | 0.0 | 0.0 | 0.20 | 0.22 | 0.20 | 93 | 1010.0 | |
| 20260904065558 | 72 | 0.0 | 0.0 | 0.20 | 0.27 | 0.20 | 93 | 1009.9 | |
| 20260904065057 | 72 | 0.0 | 0.0 | 0.20 | 0.27 | 0.20 | 93 | 1009.7 | |
| 20260904064620 | 72 | 0.0 | 0.0 | 0.19 | 0.26 | 0.19 | 93 | 1009.9 | |
| 20260904064054 | 72 | 0.0 | 0.0 | 0.19 | 0.26 | 0.19 | 93 | 1009.9 | |
| 20260904063554 | 72 | 0.0 | 0.0 | 0.18 | 0.25 | 0.18 | 93 | 1009.7 | |
| 20260904063103 | 72 | 0.0 | 0.0 | 0.14 | 0.21 | 0.14 | 93 | 1009.9 | |
| 20260904062558 | 72 | 0.0 | 0.0 | 0.06 | 0.13 | 0.06 | 93 | 1010.2 | |
| 20260904062053 | 72 | 0.0 | 0.0 | 0.01 | 0.08 | 0.01 | 93 | 1010.2 | |
| 20260904061605 | 72 | 0.0 | 0.0 | 0.00 | 0.07 | 0.00 | 93 | 1010.2 | |
| 20260904061100 | 72 | 0.0 | 0.0 | 0.00 | 0.07 | 0.00 | 93 | 1010.3 | |
| 20260904060557 | 72 | 0.0 | 0.0 | 0.00 | 0.07 | 0.00 | 93 | 1010.4 | |
| 20260904060110 | 72 | 0.0 | 0.0 | 0.00 | 0.07 | 0.00 | 93 | 1010.3 | |
| 20260904055553 | 72 | 0.0 | 0.0 | 0.00 | 0.29 | 0.00 | 92 | 1010.1 | |
| 20260904055056 | 72 | 0.0 | 0.0 | 0.00 | 0.29 | 0.00 | 92 | 1010.3 | |
| 20260904054607 | 72 | 0.0 | 0.0 | 0.00 | 0.29 | 0.00 | 93 | 1010.4 | |
| 20260904054059 | 72 | 0.0 | 0.0 | 0.00 | 0.29 | 0.00 | 92 | 1010.5 | |
| 20260904053557 | 72 | 0.0 | 0.0 | 0.00 | 0.29 | 0.00 | 92 | 1010.4 | |
| 20260904053105 | 72 | 0.0 | 0.0 | 0.00 | 0.29 | 0.00 | 92 | 1010.4 | |
| 20260904052558 | 72 | 0.0 | 0.0 | 0.00 | 0.29 | 0.00 | 92 | 1010.4 | |
| 20260904052057 | 72 | 0.0 | 0.0 | 0.00 | 0.29 | 0.00 | 92 | 1010.3 | |
| 20260904051610 | 72 | 0.0 | 0.0 | 0.00 | 0.29 | 0.00 | 92 | 1010.3 | |
| 20260904051054 | 72 | 0.0 | 0.0 | 0.00 | 0.29 | 0.00 | 92 | 1010.4 | |
| 20260904050554 | 72 | 0.0 | 0.0 | 0.00 | 0.29 | 0.00 | 92 | 1010.6 | |
| 20260904050148 | 73 | 0.0 | 0.0 | 0.00 | 0.29 | 0.00 | 92 | 1010.8 | |
| 20260904045556 | 73 | 0.0 | 0.0 | 0.00 | 0.30 | 0.00 | 92 | 1010.9 | |
| 20260904045056 | 73 | 0.0 | 0.0 | 0.00 | 0.30 | 0.00 | 92 | 1011.0 | |
| 20260904044606 | 73 | 0.0 | 0.0 | 0.00 | 0.30 | 0.00 | 92 | 1011.2 | |
| 20260904044055 | 72 | 0.0 | 0.0 | 0.00 | 0.30 | 0.00 | 91 | 1010.9 | |
| 20260904043555 | 72 | 0.0 | 0.0 | 0.00 | 0.30 | 0.00 | 91 | 1010.9 | |
| 20260904043104 | 72 | 0.0 | 0.0 | 0.00 | 0.30 | 0.00 | 91 | 1011.0 | |
| 20260904042556 | 73 | 0.0 | 0.0 | 0.00 | 0.30 | 0.00 | 91 | 1011.1 | |
| 20260904042058 | 73 | 0.0 | 0.0 | 0.00 | 0.30 | 0.00 | 91 | 1011.1 | |
| 20260904041624 | 73 | 0.0 | 0.0 | 0.00 | 0.30 | 0.00 | 91 | 1011.1 | |
| 20260904041055 | 72 | 0.0 | 0.0 | 0.00 | 0.30 | 0.00 | 90 | 1011.1 | |
| 20260904040554 | 73 | 0.0 | 0.0 | 0.00 | 0.30 | 0.00 | 90 | 1011.0 | |
| 20260904040108 | 73 | 0.0 | 0.0 | 0.00 | 0.30 | 0.00 | 90 | 1010.9 | |
| 20260904035557 | 73 | 0.0 | 0.0 | 0.00 | 0.30 | 0.30 | 90 | 1010.9 | |
| 20260904035055 | 72 | 0.0 | 0.0 | 0.00 | 0.30 | 0.30 | 90 | 1011.1 | |
| 20260904034614 | 73 | 0.0 | 0.0 | 0.00 | 0.30 | 0.30 | 90 | 1011.2 | |
| 20260904034057 | 73 | 0.0 | 0.0 | 0.00 | 0.30 | 0.30 | 90 | 1011.3 | |
| 20260904033555 | 73 | 0.0 | 0.0 | 0.00 | 0.30 | 0.30 | 90 | 1011.3 | |
| 20260904033103 | 73 | 0.0 | 0.0 | 0.00 | 0.30 | 0.30 | 89 | 1011.2 | |
| 20260904032555 | 73 | 0.0 | 0.0 | 0.00 | 0.30 | 0.30 | 89 | 1011.1 | |
| 20260904032056 | 73 | 0.0 | 0.0 | 0.00 | 0.30 | 0.30 | 89 | 1011.3 | |
| 20260904031609 | 73 | 0.0 | 0.0 | 0.00 | 0.30 | 0.30 | 89 | 1011.4 | |
| 20260904031053 | 73 | 0.0 | 0.0 | 0.00 | 0.30 | 0.30 | 89 | 1011.4 | |
| 20260904030554 | 73 | 0.0 | 0.0 | 0.00 | 0.30 | 0.30 | 89 | 1011.4 | |
| 20260904030104 | 73 | 0.0 | 0.0 | 0.00 | 0.30 | 0.30 | 89 | 1011.3 | |
| 20260904025556 | 73 | 0.0 | 0.0 | 0.00 | 0.30 | 0.30 | 89 | 1011.5 | |
| 20260904025054 | 73 | 0.0 | 0.0 | 0.00 | 0.30 | 0.30 | 89 | 1011.7 | |
| 20260904024607 | 73 | 0.0 | 0.0 | 0.00 | 0.30 | 0.30 | 89 | 1011.7 | |
| 20260904024055 | 73 | 0.0 | 0.0 | 0.00 | 0.30 | 0.30 | 89 | 1011.7 | |
| 20260904023556 | 74 | 0.0 | 0.0 | 0.00 | 0.30 | 0.30 | 88 | 1011.7 | |
| 20260904023104 | 74 | 0.0 | 0.0 | 0.00 | 0.30 | 0.30 | 88 | 1011.6 | |
| 20260904022554 | 74 | 0.0 | 0.0 | 0.00 | 0.30 | 0.30 | 88 | 1011.7 | |
| 20260904022057 | 74 | 0.0 | 0.0 | 0.00 | 0.30 | 0.30 | 89 | 1011.7 | |
| 20260904021606 | 74 | 0.0 | 0.0 | 0.00 | 0.30 | 0.30 | 89 | 1011.8 | |
| 20260904021053 | 74 | 0.0 | 0.0 | 0.00 | 0.30 | 0.30 | 88 | 1011.8 | |
| 20260904020554 | 74 | 0.0 | 0.0 | 0.00 | 0.30 | 0.30 | 88 | 1011.9 | |
| 20260904020103 | 74 | 0.0 | 0.0 | 0.00 | 0.30 | 0.30 | 88 | 1011.8 | |
| 20260904015557 | 74 | 0.0 | 0.0 | 0.00 | 0.30 | 0.30 | 88 | 1011.8 | |
| 20260904015056 | 75 | 0.0 | 0.0 | 0.00 | 0.30 | 0.30 | 88 | 1012.0 |